Time,TemperatureF,DewpointF,PressureIn,WindDirection,WindDirectionDegrees,WindSpeedMPH,WindSpeedGustMPH,Humidity,HourlyPrecipIn,Conditions,Clouds,dailyrainin,SoftwareType,DateUTC
2013-03-20 00:00:00,51.5,48.9,29.51,SSW,203,3.4,8.5,91,0.09,,,0.00,WUHU216HW,2013-03-20 07:00:00,
2013-03-20 00:05:00,51.7,49.1,29.51,SE,135,4.0,8.5,91,0.09,,,0.00,WUHU216HW,2013-03-20 07:05:00,
2013-03-20 00:10:00,51.7,49.1,29.51,SE,135,3.6,9.8,91,0.08,,,0.00,WUHU216HW,2013-03-20 07:10:00,
2013-03-20 00:15:00,51.8,49.2,29.51,South,180,2.5,9.8,91,0.07,,,0.00,WUHU216HW,2013-03-20 07:15:00,
2013-03-20 00:20:00,51.8,49.5,29.51,SSE,158,4.5,7.8,92,0.06,,,0.00,WUHU216HW,2013-03-20 07:20:00,
2013-03-20 00:25:00,51.8,49.5,29.51,SSE,158,6.3,7.8,92,0.06,,,0.00,WUHU216HW,2013-03-20 07:25:00,
2013-03-20 00:30:00,52.0,49.7,29.51,SSE,158,3.8,6.5,92,0.04,,,0.00,WUHU216HW,2013-03-20 07:30:00,
2013-03-20 00:35:00,52.0,49.7,29.51,East,90,5.4,8.1,92,0.03,,,0.00,WUHU216HW,2013-03-20 07:35:00,
2013-03-20 00:40:00,52.2,49.9,29.51,SSE,158,4.0,8.1,92,0.02,,,0.00,WUHU216HW,2013-03-20 07:40:00,
2013-03-20 00:45:00,52.2,49.9,29.51,SE,135,4.0,7.4,92,0.01,,,0.00,WUHU216HW,2013-03-20 07:45:00,
2013-03-20 00:50:00,52.2,49.9,29.51,SE,135,2.7,7.6,92,0.00,,,0.00,WUHU216HW,2013-03-20 07:50:00,
2013-03-20 00:55:00,52.4,49.8,29.51,ESE,113,7.4,8.5,91,0.00,,,0.00,WUHU216HW,2013-03-20 07:55:00,
2013-03-20 01:00:00,52.6,50.0,29.51,NNW,338,7.8,12.1,91,0.00,,,0.00,WUHU216HW,2013-03-20 08:00:00,
2013-03-20 01:05:00,52.7,49.9,29.51,South,180,5.4,12.1,90,0.00,,,0.00,WUHU216HW,2013-03-20 08:05:00,
2013-03-20 01:10:00,52.9,50.0,29.50,South,180,3.4,10.3,90,0.00,,,0.00,WUHU216HW,2013-03-20 08:10:00,
2013-03-20 01:15:00,52.9,49.8,29.50,SW,225,3.6,10.3,89,0.00,,,0.00,WUHU216HW,2013-03-20 08:15:00,
2013-03-20 01:20:00,52.9,50.0,29.49,SE,135,5.1,9.4,90,0.00,,,0.00,WUHU216HW,2013-03-20 08:20:00,
2013-03-20 01:25:00,52.7,49.9,29.50,SE,135,4.7,6.9,90,0.00,,,0.00,WUHU216HW,2013-03-20 08:25:00,
2013-03-20 01:30:00,52.9,49.8,29.49,SE,135,5.1,6.7,89,0.00,,,0.00,WUHU216HW,2013-03-20 08:30:00,
2013-03-20 01:35:00,52.9,49.8,29.49,ESE,113,7.6,11.2,89,0.00,,,0.00,WUHU216HW,2013-03-20 08:35:00,
2013-03-20 01:40:00,53.1,50.0,29.49,SSE,158,2.7,11.2,89,0.00,,,0.00,WUHU216HW,2013-03-20 08:40:00,
2013-03-20 01:45:00,53.1,50.0,29.49,SE,135,4.9,8.5,89,0.00,,,0.00,WUHU216HW,2013-03-20 08:45:00,
2013-03-20 01:50:00,53.1,50.0,29.49,SSE,158,4.3,6.3,89,0.00,,,0.00,WUHU216HW,2013-03-20 08:50:00,
2013-03-20 01:55:00,52.9,49.8,29.49,SE,135,2.9,6.3,89,0.00,,,0.00,WUHU216HW,2013-03-20 08:55:00,
2013-03-20 02:00:00,52.9,49.8,29.49,SSE,158,4.7,7.6,89,0.00,,,0.00,WUHU216HW,2013-03-20 09:00:00,
2013-03-20 02:05:00,52.9,49.8,29.49,NW,315,4.7,8.7,89,0.00,,,0.00,WUHU216HW,2013-03-20 09:05:00,
2013-03-20 02:10:00,53.1,50.0,29.49,SE,135,3.6,8.7,89,0.00,,,0.00,WUHU216HW,2013-03-20 09:10:00,
2013-03-20 02:15:00,53.3,49.5,29.49,SE,135,6.5,8.5,87,0.00,,,0.00,WUHU216HW,2013-03-20 09:15:00,
2013-03-20 02:20:00,53.5,50.0,29.49,SE,135,5.4,7.8,88,0.00,,,0.00,WUHU216HW,2013-03-20 09:20:00,
2013-03-20 02:25:00,53.5,49.7,29.49,ENE,68,2.2,6.5,87,0.00,,,0.00,WUHU216HW,2013-03-20 09:25:00,
2013-03-20 02:30:00,53.6,50.1,29.49,SSW,203,5.8,13.4,88,0.00,,,0.00,WUHU216HW,2013-03-20 09:30:00,
2013-03-20 02:35:00,53.5,50.0,29.49,SE,135,5.1,13.4,88,0.00,,,0.00,WUHU216HW,2013-03-20 09:35:00,
2013-03-20 02:40:00,53.5,50.0,29.48,SE,135,4.7,10.5,88,0.00,,,0.00,WUHU216HW,2013-03-20 09:40:00,
2013-03-20 02:45:00,53.6,50.1,29.48,ESE,113,4.0,10.5,88,0.00,,,0.00,WUHU216HW,2013-03-20 09:45:00,
2013-03-20 02:50:00,53.6,49.9,29.49,SE,135,6.7,9.2,87,0.00,,,0.00,WUHU216HW,2013-03-20 09:50:00,
2013-03-20 02:55:00,53.6,49.9,29.49,SSW,203,2.5,9.2,87,0.00,,,0.00,WUHU216HW,2013-03-20 09:55:00,
2013-03-20 03:00:00,53.8,50.1,29.49,SW,225,6.5,9.6,87,0.00,,,0.00,WUHU216HW,2013-03-20 10:00:00,
2013-03-20 03:05:00,53.8,49.7,29.49,SE,135,2.5,9.6,86,0.00,,,0.00,WUHU216HW,2013-03-20 10:05:00,
2013-03-20 03:10:00,54.0,49.9,29.49,SSE,158,4.3,9.4,86,0.00,,,0.00,WUHU216HW,2013-03-20 10:10:00,
2013-03-20 03:15:00,54.0,49.9,29.49,WSW,248,4.7,11.6,86,0.00,,,0.00,WUHU216HW,2013-03-20 10:15:00,
2013-03-20 03:20:00,54.0,49.6,29.49,SSE,158,4.7,11.6,85,0.00,,,0.00,WUHU216HW,2013-03-20 10:20:00,
2013-03-20 03:25:00,54.0,49.2,29.49,East,90,4.0,11.2,84,0.01,,,0.01,WUHU216HW,2013-03-20 10:25:00,
2013-03-20 03:30:00,54.0,49.2,29.49,SSW,203,7.6,14.5,84,0.01,,,0.01,WUHU216HW,2013-03-20 10:30:00,
2013-03-20 03:35:00,54.0,49.2,29.49,SW,225,11.2,14.5,84,0.01,,,0.01,WUHU216HW,2013-03-20 10:35:00,
2013-03-20 03:40:00,54.0,49.2,29.49,ESE,113,4.7,11.2,84,0.01,,,0.01,WUHU216HW,2013-03-20 10:40:00,
2013-03-20 03:45:00,54.0,49.2,29.49,SSE,158,4.3,11.2,84,0.01,,,0.01,WUHU216HW,2013-03-20 10:45:00,
2013-03-20 03:50:00,53.8,49.4,29.49,ESE,113,11.4,11.4,85,0.01,,,0.01,WUHU216HW,2013-03-20 10:50:00,
2013-03-20 03:55:00,53.8,49.1,29.49,NNW,338,3.4,11.4,84,0.01,,,0.01,WUHU216HW,2013-03-20 10:55:00,
2013-03-20 04:00:00,54.0,49.2,29.48,East,90,8.1,11.4,84,0.01,,,0.01,WUHU216HW,2013-03-20 11:00:00,
2013-03-20 04:05:00,54.0,49.2,29.48,SW,225,2.9,9.2,84,0.01,,,0.01,WUHU216HW,2013-03-20 11:05:00,
2013-03-20 04:10:00,53.8,49.1,29.48,South,180,6.5,8.9,84,0.01,,,0.01,WUHU216HW,2013-03-20 11:10:00,
2013-03-20 04:15:00,53.6,49.2,29.48,South,180,5.8,12.8,85,0.01,,,0.01,WUHU216HW,2013-03-20 11:15:00,
2013-03-20 04:20:00,53.6,49.5,29.48,SSW,203,6.9,12.8,86,0.00,,,0.01,WUHU216HW,2013-03-20 11:20:00,
2013-03-20 04:25:00,53.3,49.1,29.48,East,90,6.7,13.0,86,0.00,,,0.01,WUHU216HW,2013-03-20 11:25:00,
2013-03-20 04:30:00,53.3,49.5,29.48,ESE,113,8.7,13.0,87,0.00,,,0.01,WUHU216HW,2013-03-20 11:30:00,
2013-03-20 04:35:00,53.1,49.3,29.48,SE,135,6.3,9.4,87,0.00,,,0.01,WUHU216HW,2013-03-20 11:35:00,
2013-03-20 04:40:00,53.1,49.6,29.48,SE,135,3.1,11.6,88,0.00,,,0.01,WUHU216HW,2013-03-20 11:40:00,
2013-03-20 04:45:00,53.1,49.6,29.48,SSE,158,6.0,11.6,88,0.00,,,0.01,WUHU216HW,2013-03-20 11:45:00,
2013-03-20 04:50:00,53.1,49.6,29.48,NE,45,2.0,10.3,88,0.00,,,0.01,WUHU216HW,2013-03-20 11:50:00,
2013-03-20 04:55:00,52.9,49.4,29.48,WSW,248,3.4,11.4,88,0.00,,,0.01,WUHU216HW,2013-03-20 11:55:00,
2013-03-20 05:00:00,52.9,49.4,29.48,SE,135,7.2,11.4,88,0.00,,,0.01,WUHU216HW,2013-03-20 12:00:00,
2013-03-20 05:05:00,52.9,49.4,29.48,SSW,203,5.4,12.1,88,0.00,,,0.01,WUHU216HW,2013-03-20 12:05:00,
2013-03-20 05:10:00,52.9,49.4,29.48,SSW,203,6.0,12.1,88,0.00,,,0.01,WUHU216HW,2013-03-20 12:10:00,
2013-03-20 05:15:00,52.9,49.4,29.48,South,180,3.6,11.4,88,0.00,,,0.01,WUHU216HW,2013-03-20 12:15:00,
2013-03-20 05:20:00,52.9,49.8,29.48,SE,135,6.0,11.2,89,0.00,,,0.01,WUHU216HW,2013-03-20 12:20:00,
2013-03-20 05:25:00,52.7,49.6,29.48,SSE,158,5.8,11.2,89,0.00,,,0.01,WUHU216HW,2013-03-20 12:25:00,
2013-03-20 05:30:00,52.9,49.8,29.48,SSE,158,3.1,9.8,89,0.00,,,0.01,WUHU216HW,2013-03-20 12:30:00,
2013-03-20 05:35:00,52.9,49.8,29.48,ENE,68,3.4,9.8,89,0.00,,,0.01,WUHU216HW,2013-03-20 12:35:00,
2013-03-20 05:40:00,52.9,49.8,29.48,SSW,203,7.8,9.8,89,0.00,,,0.01,WUHU216HW,2013-03-20 12:40:00,
2013-03-20 05:45:00,52.9,49.8,29.48,ESE,113,12.3,12.3,89,0.00,,,0.01,WUHU216HW,2013-03-20 12:45:00,
2013-03-20 05:50:00,52.9,49.8,29.48,SSW,203,5.4,12.3,89,0.00,,,0.01,WUHU216HW,2013-03-20 12:50:00,
2013-03-20 05:55:00,52.9,49.8,29.48,SE,135,4.5,12.3,89,0.00,,,0.01,WUHU216HW,2013-03-20 12:55:00,
2013-03-20 06:00:00,52.9,49.8,29.48,SE,135,3.6,10.7,89,0.00,,,0.01,WUHU216HW,2013-03-20 13:00:00,
2013-03-20 06:05:00,52.9,49.8,29.48,WSW,248,2.5,10.7,89,0.00,,,0.01,WUHU216HW,2013-03-20 13:05:00,
2013-03-20 06:10:00,52.7,49.6,29.48,SW,225,6.3,7.2,89,0.00,,,0.01,WUHU216HW,2013-03-20 13:10:00,
2013-03-20 06:15:00,52.6,49.7,29.48,WSW,248,4.0,6.3,90,0.00,,,0.01,WUHU216HW,2013-03-20 13:15:00,
2013-03-20 06:20:00,52.4,49.8,29.48,SE,135,8.3,10.5,91,0.00,,,0.01,WUHU216HW,2013-03-20 13:20:00,
2013-03-20 06:25:00,52.2,49.9,29.48,SSE,158,2.5,11.9,92,0.01,,,0.02,WUHU216HW,2013-03-20 13:25:00,
2013-03-20 06:30:00,52.2,49.9,29.49,SSE,158,3.8,11.9,92,0.01,,,0.02,WUHU216HW,2013-03-20 13:30:00,
2013-03-20 06:35:00,52.0,49.7,29.49,ESE,113,6.7,8.5,92,0.01,,,0.02,WUHU216HW,2013-03-20 13:35:00,
2013-03-20 06:40:00,52.0,49.7,29.49,ENE,68,7.2,7.2,92,0.01,,,0.02,WUHU216HW,2013-03-20 13:40:00,
2013-03-20 06:45:00,52.0,49.7,29.50,SE,135,2.7,11.2,92,0.01,,,0.02,WUHU216HW,2013-03-20 13:45:00,
2013-03-20 06:50:00,51.8,49.5,29.50,ESE,113,4.0,11.2,92,0.01,,,0.02,WUHU216HW,2013-03-20 13:50:00,
2013-03-20 06:55:00,51.8,49.5,29.50,SE,135,5.4,9.4,92,0.02,,,0.03,WUHU216HW,2013-03-20 13:55:00,
2013-03-20 07:00:00,51.8,49.5,29.50,SE,135,4.0,9.4,92,0.03,,,0.04,WUHU216HW,2013-03-20 14:00:00,
2013-03-20 07:05:00,51.7,49.1,29.51,East,90,1.8,9.4,91,0.03,,,0.04,WUHU216HW,2013-03-20 14:05:00,
2013-03-20 07:10:00,51.5,48.9,29.51,SE,135,4.0,8.7,91,0.04,,,0.05,WUHU216HW,2013-03-20 14:10:00,
2013-03-20 07:15:00,51.5,49.1,29.51,SSW,203,4.3,6.3,92,0.06,,,0.07,WUHU216HW,2013-03-20 14:15:00,
2013-03-20 07:20:00,51.3,49.0,29.53,NNW,338,1.8,6.3,92,0.07,,,0.09,WUHU216HW,2013-03-20 14:20:00,
2013-03-20 07:25:00,50.4,47.8,29.53,North,0,0.7,6.0,91,0.07,,,0.09,WUHU216HW,2013-03-20 14:25:00,
2013-03-20 07:30:00,49.7,47.2,29.54,NE,45,0.9,4.5,91,0.07,,,0.09,WUHU216HW,2013-03-20 14:30:00,
2013-03-20 07:35:00,49.1,46.6,29.55,NW,315,1.6,5.4,91,0.08,,,0.10,WUHU216HW,2013-03-20 14:35:00,
2013-03-20 07:40:00,48.8,46.6,29.56,NE,45,2.0,5.4,92,0.08,,,0.10,WUHU216HW,2013-03-20 14:40:00,
2013-03-20 07:45:00,48.6,46.5,29.56,NE,45,0.9,4.3,92,0.09,,,0.11,WUHU216HW,2013-03-20 14:45:00,
2013-03-20 07:50:00,48.4,46.3,29.56,East,90,2.5,2.5,92,0.10,,,0.12,WUHU216HW,2013-03-20 14:50:00,
2013-03-20 07:55:00,48.4,46.3,29.56,NNW,338,0.7,3.6,92,0.10,,,0.13,WUHU216HW,2013-03-20 14:55:00,
2013-03-20 08:00:00,48.2,46.1,29.56,NW,315,2.5,4.0,92,0.11,,,0.15,WUHU216HW,2013-03-20 15:00:00,
2013-03-20 08:05:00,48.2,46.4,29.57,SW,225,0.4,4.7,93,0.11,,,0.16,WUHU216HW,2013-03-20 15:05:00,
2013-03-20 08:10:00,48.2,46.4,29.57,WSW,248,1.1,4.7,93,0.10,,,0.16,WUHU216HW,2013-03-20 15:10:00,
2013-03-20 08:15:00,48.2,46.4,29.58,NNE,23,0.2,3.4,93,0.10,,,0.17,WUHU216HW,2013-03-20 15:15:00,
2013-03-20 08:20:00,48.2,46.4,29.58,ESE,113,2.0,2.9,93,0.09,,,0.18,WUHU216HW,2013-03-20 15:20:00,
2013-03-20 08:25:00,47.9,46.0,29.58,NNW,338,1.3,3.6,93,0.09,,,0.18,WUHU216HW,2013-03-20 15:25:00,
2013-03-20 08:30:00,47.7,45.8,29.59,West,270,0.0,3.6,93,0.09,,,0.18,WUHU216HW,2013-03-20 15:30:00,
2013-03-20 08:35:00,47.7,45.8,29.59,North,0,0.0,2.9,93,0.08,,,0.18,WUHU216HW,2013-03-20 15:35:00,
2013-03-20 08:40:00,47.7,45.8,29.60,WNW,293,0.4,3.4,93,0.07,,,0.18,WUHU216HW,2013-03-20 15:40:00,
2013-03-20 08:45:00,47.5,45.4,29.61,SW,225,0.7,4.3,92,0.07,,,0.18,WUHU216HW,2013-03-20 15:45:00,
2013-03-20 08:50:00,47.3,45.2,29.61,NNW,338,0.4,4.3,92,0.06,,,0.18,WUHU216HW,2013-03-20 15:50:00,
2013-03-20 08:55:00,47.3,45.2,29.62,NE,45,0.4,3.6,92,0.05,,,0.18,WUHU216HW,2013-03-20 15:55:00,
2013-03-20 09:00:00,47.2,45.0,29.62,NNE,23,1.6,3.6,92,0.02,,,0.18,WUHU216HW,2013-03-20 16:00:00,
2013-03-20 09:05:00,47.2,45.0,29.63,WNW,293,0.7,3.8,92,0.02,,,0.18,WUHU216HW,2013-03-20 16:05:00,
2013-03-20 09:10:00,47.2,45.0,29.63,NNW,338,0.2,3.8,92,0.02,,,0.18,WUHU216HW,2013-03-20 16:10:00,
2013-03-20 09:15:00,47.3,45.5,29.64,NNE,23,1.6,3.1,93,0.01,,,0.18,WUHU216HW,2013-03-20 16:15:00,
2013-03-20 09:20:00,47.3,45.2,29.64,NNE,23,1.3,3.8,92,0.00,,,0.18,WUHU216HW,2013-03-20 16:20:00,
2013-03-20 09:25:00,47.3,45.2,29.65,NNE,23,0.4,4.0,92,0.00,,,0.18,WUHU216HW,2013-03-20 16:25:00,
2013-03-20 09:30:00,47.5,45.4,29.65,WSW,248,0.0,4.0,92,0.00,,,0.18,WUHU216HW,2013-03-20 16:30:00,
2013-03-20 09:35:00,47.7,45.5,29.65,ENE,68,1.8,3.1,92,0.00,,,0.18,WUHU216HW,2013-03-20 16:35:00,
2013-03-20 09:40:00,47.7,45.5,29.66,North,0,1.1,3.1,92,0.00,,,0.18,WUHU216HW,2013-03-20 16:40:00,
2013-03-20 09:45:00,47.5,45.4,29.66,North,0,2.2,2.9,92,0.00,,,0.18,WUHU216HW,2013-03-20 16:45:00,
2013-03-20 09:50:00,47.5,45.4,29.66,NW,315,0.7,4.7,92,0.00,,,0.18,WUHU216HW,2013-03-20 16:50:00,
2013-03-20 09:55:00,47.2,45.0,29.67,NNE,23,0.4,4.7,92,0.00,,,0.18,WUHU216HW,2013-03-20 16:55:00,
2013-03-20 10:00:00,47.3,44.9,29.67,NW,315,1.1,2.2,91,0.00,,,0.18,WUHU216HW,2013-03-20 17:00:00,
2013-03-20 10:05:00,47.5,45.4,29.68,North,0,1.1,3.4,92,0.00,,,0.18,WUHU216HW,2013-03-20 17:05:00,
2013-03-20 10:10:00,47.7,45.3,29.68,NNE,23,0.7,3.4,91,0.00,,,0.18,WUHU216HW,2013-03-20 17:10:00,
2013-03-20 10:15:00,47.7,45.3,29.69,NW,315,0.9,3.1,91,0.00,,,0.18,WUHU216HW,2013-03-20 17:15:00,
2013-03-20 10:20:00,47.9,45.5,29.69,NE,45,3.6,3.6,91,0.00,,,0.18,WUHU216HW,2013-03-20 17:20:00,
2013-03-20 10:25:00,48.2,45.8,29.69,West,270,0.4,3.6,91,0.00,,,0.18,WUHU216HW,2013-03-20 17:25:00,
2013-03-20 10:30:00,48.2,45.2,29.70,NNE,23,1.1,3.6,89,0.00,,,0.18,WUHU216HW,2013-03-20 17:30:00,
2013-03-20 10:35:00,48.4,46.0,29.71,West,270,0.0,3.4,91,0.00,,,0.18,WUHU216HW,2013-03-20 17:35:00,
2013-03-20 10:40:00,48.6,45.9,29.71,NNE,23,0.9,3.4,90,0.01,,,0.19,WUHU216HW,2013-03-20 17:40:00,
2013-03-20 10:45:00,47.9,45.2,29.72,East,90,1.8,3.4,90,0.01,,,0.19,WUHU216HW,2013-03-20 17:45:00,
2013-03-20 10:50:00,47.9,45.2,29.72,NE,45,1.8,2.5,90,0.01,,,0.19,WUHU216HW,2013-03-20 17:50:00,
2013-03-20 10:55:00,47.9,45.2,29.72,NE,45,1.1,2.9,90,0.01,,,0.19,WUHU216HW,2013-03-20 17:55:00,
2013-03-20 11:00:00,47.9,45.2,29.72,ENE,68,1.8,2.9,90,0.01,,,0.19,WUHU216HW,2013-03-20 18:00:00,
2013-03-20 11:05:00,48.2,45.5,29.73,SSE,158,0.0,2.5,90,0.01,,,0.19,WUHU216HW,2013-03-20 18:05:00,
2013-03-20 11:10:00,48.2,45.5,29.73,ENE,68,0.2,2.5,90,0.01,,,0.19,WUHU216HW,2013-03-20 18:10:00,
2013-03-20 11:15:00,48.6,45.9,29.73,West,270,1.6,3.1,90,0.01,,,0.19,WUHU216HW,2013-03-20 18:15:00,
2013-03-20 11:20:00,48.6,45.9,29.74,NW,315,0.0,3.1,90,0.01,,,0.19,WUHU216HW,2013-03-20 18:20:00,
2013-03-20 11:25:00,48.6,44.9,29.74,West,270,0.0,2.7,87,0.01,,,0.19,WUHU216HW,2013-03-20 18:25:00,
2013-03-20 11:30:00,48.6,44.9,29.74,NW,315,0.9,2.7,87,0.01,,,0.19,WUHU216HW,2013-03-20 18:30:00,
2013-03-20 11:35:00,48.8,45.4,29.74,North,0,0.0,1.6,88,0.01,,,0.19,WUHU216HW,2013-03-20 18:35:00,
2013-03-20 11:40:00,48.8,45.4,29.74,NW,315,0.7,3.4,88,0.00,,,0.19,WUHU216HW,2013-03-20 18:40:00,
2013-03-20 11:45:00,48.8,44.5,29.75,ENE,68,1.1,3.4,85,0.01,,,0.20,WUHU216HW,2013-03-20 18:45:00,
2013-03-20 11:50:00,47.9,44.2,29.76,NNW,338,0.0,3.4,87,0.02,,,0.21,WUHU216HW,2013-03-20 18:50:00,
2013-03-20 11:55:00,47.3,44.0,29.76,NW,315,0.0,4.3,88,0.02,,,0.21,WUHU216HW,2013-03-20 18:55:00,
2013-03-20 12:00:00,47.3,44.0,29.76,West,270,0.4,4.3,88,0.02,,,0.21,WUHU216HW,2013-03-20 19:00:00,
2013-03-20 12:05:00,48.1,45.6,29.76,WNW,293,1.1,3.1,91,0.02,,,0.21,WUHU216HW,2013-03-20 19:05:00,
2013-03-20 12:10:00,49.1,46.6,29.77,ESE,113,0.4,3.6,91,0.02,,,0.21,WUHU216HW,2013-03-20 19:10:00,
2013-03-20 12:15:00,49.3,46.2,29.77,NW,315,0.2,3.6,89,0.02,,,0.21,WUHU216HW,2013-03-20 19:15:00,
2013-03-20 12:20:00,49.0,45.5,29.78,North,0,0.4,3.4,88,0.03,,,0.22,WUHU216HW,2013-03-20 19:20:00,
2013-03-20 12:25:00,49.0,45.5,29.78,ESE,113,4.7,4.7,88,0.03,,,0.22,WUHU216HW,2013-03-20 19:25:00,
2013-03-20 12:30:00,49.1,46.1,29.78,West,270,1.1,4.7,89,0.03,,,0.22,WUHU216HW,2013-03-20 19:30:00,
2013-03-20 12:35:00,49.3,45.9,29.78,NW,315,0.4,2.7,88,0.03,,,0.22,WUHU216HW,2013-03-20 19:35:00,
2013-03-20 12:40:00,49.5,45.7,29.78,North,0,0.0,1.8,87,0.02,,,0.22,WUHU216HW,2013-03-20 19:40:00,
2013-03-20 12:45:00,49.9,46.4,29.79,WNW,293,0.0,1.3,88,0.02,,,0.22,WUHU216HW,2013-03-20 19:45:00,
2013-03-20 12:50:00,50.2,46.1,29.79,North,0,0.0,2.7,86,0.01,,,0.22,WUHU216HW,2013-03-20 19:50:00,
2013-03-20 12:55:00,50.4,46.3,29.79,West,270,0.4,4.5,86,0.01,,,0.22,WUHU216HW,2013-03-20 19:55:00,
2013-03-20 13:00:00,50.2,44.9,29.79,NNW,338,0.4,4.5,82,0.01,,,0.22,WUHU216HW,2013-03-20 20:00:00,
2013-03-20 13:05:00,50.2,45.6,29.79,WNW,293,0.7,3.8,84,0.01,,,0.22,WUHU216HW,2013-03-20 20:05:00,
2013-03-20 13:10:00,50.2,45.6,29.80,SE,135,1.6,6.3,84,0.01,,,0.22,WUHU216HW,2013-03-20 20:10:00,
2013-03-20 13:15:00,50.0,45.4,29.80,North,0,1.1,6.3,84,0.01,,,0.22,WUHU216HW,2013-03-20 20:15:00,
2013-03-20 13:20:00,50.0,44.7,29.80,WSW,248,0.4,2.9,82,0.00,,,0.22,WUHU216HW,2013-03-20 20:20:00,
2013-03-20 13:25:00,50.2,44.9,29.80,WNW,293,0.9,3.4,82,0.00,,,0.22,WUHU216HW,2013-03-20 20:25:00,
2013-03-20 13:30:00,50.0,44.4,29.81,NNW,338,0.4,3.4,81,0.00,,,0.22,WUHU216HW,2013-03-20 20:30:00,
2013-03-20 13:35:00,49.5,43.6,29.81,East,90,1.1,2.0,80,0.00,,,0.22,WUHU216HW,2013-03-20 20:35:00,
2013-03-20 13:40:00,49.5,43.6,29.82,NW,315,0.0,3.1,80,0.00,,,0.22,WUHU216HW,2013-03-20 20:40:00,
2013-03-20 13:45:00,49.7,43.7,29.82,SE,135,0.0,3.4,80,0.00,,,0.22,WUHU216HW,2013-03-20 20:45:00,
2013-03-20 13:50:00,50.2,43.9,29.82,ENE,68,3.1,3.4,79,0.00,,,0.22,WUHU216HW,2013-03-20 20:50:00,
2013-03-20 13:55:00,50.8,44.8,29.82,NNW,338,0.4,3.4,80,0.00,,,0.22,WUHU216HW,2013-03-20 20:55:00,
2013-03-20 14:00:00,50.4,43.7,29.83,NW,315,0.2,3.4,78,0.00,,,0.22,WUHU216HW,2013-03-20 21:00:00,
2013-03-20 14:05:00,50.0,43.4,29.83,NW,315,0.9,2.7,78,0.00,,,0.22,WUHU216HW,2013-03-20 21:05:00,
2013-03-20 14:10:00,50.8,43.5,29.83,NW,315,0.0,1.3,76,0.00,,,0.22,WUHU216HW,2013-03-20 21:10:00,
2013-03-20 14:15:00,51.5,43.5,29.83,West,270,0.4,2.5,74,0.00,,,0.22,WUHU216HW,2013-03-20 21:15:00,
2013-03-20 14:20:00,50.9,43.3,29.83,West,270,0.4,2.5,75,0.00,,,0.22,WUHU216HW,2013-03-20 21:20:00,
2013-03-20 14:25:00,51.5,43.8,29.83,NW,315,0.9,2.0,75,0.00,,,0.22,WUHU216HW,2013-03-20 21:25:00,
2013-03-20 14:30:00,52.2,43.5,29.83,South,180,0.4,2.5,72,0.00,,,0.22,WUHU216HW,2013-03-20 21:30:00,
2013-03-20 14:35:00,52.9,44.2,29.84,NNW,338,0.4,2.5,72,0.00,,,0.22,WUHU216HW,2013-03-20 21:35:00,
2013-03-20 14:40:00,54.0,44.8,29.84,WNW,293,0.0,1.8,71,0.00,,,0.22,WUHU216HW,2013-03-20 21:40:00,
2013-03-20 14:45:00,54.7,44.7,29.84,SE,135,1.1,1.8,69,0.00,,,0.22,WUHU216HW,2013-03-20 21:45:00,
2013-03-20 14:50:00,53.3,44.1,29.84,WNW,293,1.8,2.0,71,0.00,,,0.22,WUHU216HW,2013-03-20 21:50:00,
2013-03-20 14:55:00,52.6,43.8,29.84,NW,315,0.4,2.9,72,0.00,,,0.22,WUHU216HW,2013-03-20 21:55:00,
2013-03-20 15:00:00,51.1,42.5,29.85,NW,315,1.6,2.9,72,0.00,,,0.22,WUHU216HW,2013-03-20 22:00:00,
2013-03-20 15:05:00,50.0,41.4,29.85,NW,315,0.2,2.9,72,0.00,,,0.22,WUHU216HW,2013-03-20 22:05:00,
2013-03-20 15:10:00,49.3,41.0,29.85,NNW,338,0.0,2.9,73,0.00,,,0.22,WUHU216HW,2013-03-20 22:10:00,
2013-03-20 15:15:00,49.3,41.0,29.85,SSE,158,0.4,1.3,73,0.00,,,0.22,WUHU216HW,2013-03-20 22:15:00,
2013-03-20 15:20:00,49.7,41.1,29.85,NW,315,0.0,1.1,72,0.00,,,0.22,WUHU216HW,2013-03-20 22:20:00,
2013-03-20 15:25:00,50.2,41.6,29.85,NW,315,1.1,1.1,72,0.00,,,0.22,WUHU216HW,2013-03-20 22:25:00,
2013-03-20 15:30:00,50.4,41.8,29.85,WNW,293,1.1,2.9,72,0.00,,,0.22,WUHU216HW,2013-03-20 22:30:00,
2013-03-20 15:35:00,49.9,41.2,29.86,WSW,248,1.6,2.9,72,0.00,,,0.22,WUHU216HW,2013-03-20 22:35:00,
2013-03-20 15:40:00,49.5,41.5,29.86,NW,315,0.4,2.7,74,0.00,,,0.22,WUHU216HW,2013-03-20 22:40:00,
2013-03-20 15:45:00,49.3,41.7,29.86,NNW,338,0.9,2.7,75,0.00,,,0.22,WUHU216HW,2013-03-20 22:45:00,
2013-03-20 15:50:00,49.3,42.7,29.87,West,270,0.4,3.4,78,0.00,,,0.22,WUHU216HW,2013-03-20 22:50:00,
2013-03-20 15:55:00,49.5,42.8,29.87,WNW,293,1.8,3.4,78,0.00,,,0.22,WUHU216HW,2013-03-20 22:55:00,
2013-03-20 16:00:00,49.5,42.8,29.87,WNW,293,0.2,2.5,78,0.00,,,0.22,WUHU216HW,2013-03-20 23:00:00,
2013-03-20 16:05:00,49.0,42.3,29.87,NW,315,0.0,2.5,78,0.01,,,0.23,WUHU216HW,2013-03-20 23:05:00,
2013-03-20 16:10:00,48.4,42.1,29.87,West,270,1.6,2.5,79,0.01,,,0.23,WUHU216HW,2013-03-20 23:10:00,
2013-03-20 16:15:00,48.4,42.5,29.87,West,270,0.0,1.8,80,0.01,,,0.23,WUHU216HW,2013-03-20 23:15:00,
2013-03-20 16:20:00,48.4,43.1,29.87,West,270,0.4,1.6,82,0.01,,,0.23,WUHU216HW,2013-03-20 23:20:00,
2013-03-20 16:25:00,48.6,42.7,29.88,NW,315,0.4,1.3,80,0.01,,,0.23,WUHU216HW,2013-03-20 23:25:00,
2013-03-20 16:30:00,48.4,42.5,29.88,NW,315,0.2,1.8,80,0.01,,,0.23,WUHU216HW,2013-03-20 23:30:00,
2013-03-20 16:35:00,48.1,41.5,29.89,North,0,0.0,1.8,78,0.01,,,0.23,WUHU216HW,2013-03-20 23:35:00,
2013-03-20 16:40:00,47.7,41.5,29.89,NW,315,1.3,1.8,79,0.01,,,0.23,WUHU216HW,2013-03-20 23:40:00,
2013-03-20 16:45:00,47.5,41.3,29.89,WNW,293,0.7,1.8,79,0.01,,,0.23,WUHU216HW,2013-03-20 23:45:00,
2013-03-20 16:50:00,47.2,41.3,29.90,North,0,1.8,1.8,80,0.01,,,0.23,WUHU216HW,2013-03-20 23:50:00,
2013-03-20 16:55:00,47.3,40.5,29.89,West,270,0.4,1.8,77,0.01,,,0.23,WUHU216HW,2013-03-20 23:55:00,
2013-03-20 17:00:00,48.2,41.6,29.90,NNW,338,0.4,1.8,78,0.01,,,0.23,WUHU216HW,2013-03-21 00:00:00,
2013-03-20 17:05:00,48.2,41.0,29.90,North,0,0.2,1.8,76,0.00,,,0.23,WUHU216HW,2013-03-21 00:05:00,
2013-03-20 17:10:00,48.1,40.8,29.90,SE,135,0.2,1.8,76,0.00,,,0.23,WUHU216HW,2013-03-21 00:10:00,
2013-03-20 17:15:00,47.9,41.3,29.90,NW,315,0.4,1.8,78,0.00,,,0.23,WUHU216HW,2013-03-21 00:15:00,
2013-03-20 17:20:00,48.1,42.1,29.90,West,270,0.4,0.9,80,0.00,,,0.23,WUHU216HW,2013-03-21 00:20:00,
2013-03-20 17:25:00,48.6,41.9,29.91,NNW,338,0.4,0.4,78,0.00,,,0.23,WUHU216HW,2013-03-21 00:25:00,
2013-03-20 17:30:00,48.4,41.5,29.91,West,270,1.3,2.0,77,0.00,,,0.23,WUHU216HW,2013-03-21 00:30:00,
2013-03-20 17:35:00,47.9,40.6,29.91,West,270,1.8,2.0,76,0.00,,,0.23,WUHU216HW,2013-03-21 00:35:00,
2013-03-20 17:40:00,47.2,40.7,29.92,WSW,248,0.2,1.8,78,0.00,,,0.23,WUHU216HW,2013-03-21 00:40:00,
2013-03-20 17:45:00,46.4,40.7,29.92,WNW,293,0.4,1.8,80,0.00,,,0.23,WUHU216HW,2013-03-21 00:45:00,
2013-03-20 17:50:00,46.3,40.8,29.92,WNW,293,0.0,1.1,81,0.00,,,0.23,WUHU216HW,2013-03-21 00:50:00,
2013-03-20 17:55:00,46.1,41.0,29.92,NW,315,0.0,1.1,82,0.00,,,0.23,WUHU216HW,2013-03-21 00:55:00,
2013-03-20 18:00:00,46.3,41.4,29.92,NW,315,0.0,1.1,83,0.00,,,0.23,WUHU216HW,2013-03-21 01:00:00,
2013-03-20 18:05:00,46.3,41.4,29.92,NE,45,0.0,0.0,83,0.00,,,0.23,WUHU216HW,2013-03-21 01:05:00,
2013-03-20 18:10:00,46.4,41.6,29.93,WNW,293,0.4,0.9,83,0.00,,,0.23,WUHU216HW,2013-03-21 01:10:00,
2013-03-20 18:15:00,46.3,41.8,29.93,WNW,293,0.4,0.9,84,0.00,,,0.23,WUHU216HW,2013-03-21 01:15:00,
2013-03-20 18:20:00,46.1,40.6,29.93,West,270,1.1,1.1,81,0.00,,,0.23,WUHU216HW,2013-03-21 01:20:00,
2013-03-20 18:25:00,45.9,40.8,29.94,NNW,338,0.0,1.1,82,0.00,,,0.23,WUHU216HW,2013-03-21 01:25:00,
2013-03-20 18:30:00,45.9,40.4,29.94,NNW,338,0.0,0.9,81,0.00,,,0.23,WUHU216HW,2013-03-21 01:30:00,
2013-03-20 18:35:00,46.1,40.6,29.94,NNW,338,0.2,0.7,81,0.00,,,0.23,WUHU216HW,2013-03-21 01:35:00,
2013-03-20 18:40:00,46.1,40.6,29.95,NW,315,0.7,0.7,81,0.00,,,0.23,WUHU216HW,2013-03-21 01:40:00,
2013-03-20 18:45:00,46.1,40.6,29.95,NNW,338,0.0,0.7,81,0.00,,,0.23,WUHU216HW,2013-03-21 01:45:00,
2013-03-20 18:50:00,45.9,40.4,29.95,NNW,338,0.0,0.7,81,0.00,,,0.23,WUHU216HW,2013-03-21 01:50:00,
2013-03-20 18:55:00,45.9,40.8,29.95,North,0,0.0,0.7,82,0.00,,,0.23,WUHU216HW,2013-03-21 01:55:00,
2013-03-20 19:00:00,45.7,40.2,29.96,NNE,23,0.0,0.7,81,0.00,,,0.23,WUHU216HW,2013-03-21 02:00:00,
2013-03-20 19:05:00,45.5,40.1,29.96,NNE,23,0.0,0.2,81,0.00,,,0.23,WUHU216HW,2013-03-21 02:05:00,
2013-03-20 19:10:00,45.5,40.4,29.96,NNE,23,0.0,0.0,82,0.00,,,0.23,WUHU216HW,2013-03-21 02:10:00,
2013-03-20 19:15:00,45.4,40.5,29.96,NNE,23,0.0,0.0,83,0.00,,,0.23,WUHU216HW,2013-03-21 02:15:00,
2013-03-20 19:20:00,45.2,40.3,29.96,NNW,338,0.2,0.2,83,0.00,,,0.23,WUHU216HW,2013-03-21 02:20:00,
2013-03-20 19:25:00,45.0,40.1,29.96,NW,315,0.0,0.4,83,0.00,,,0.23,WUHU216HW,2013-03-21 02:25:00,
2013-03-20 19:30:00,44.8,40.0,29.97,NW,315,0.0,0.4,83,0.00,,,0.23,WUHU216HW,2013-03-21 02:30:00,
2013-03-20 19:35:00,44.6,39.8,29.97,NW,315,0.0,0.2,83,0.00,,,0.23,WUHU216HW,2013-03-21 02:35:00,
2013-03-20 19:40:00,44.5,39.6,29.97,NW,315,0.0,0.0,83,0.00,,,0.23,WUHU216HW,2013-03-21 02:40:00,
2013-03-20 19:45:00,44.3,39.4,29.97,North,0,0.0,0.4,83,0.00,,,0.23,WUHU216HW,2013-03-21 02:45:00,
2013-03-20 19:50:00,44.3,39.4,29.98,North,0,0.0,0.4,83,0.00,,,0.23,WUHU216HW,2013-03-21 02:50:00,
2013-03-20 19:55:00,44.1,39.2,29.98,North,0,0.0,0.0,83,0.00,,,0.23,WUHU216HW,2013-03-21 02:55:00,
2013-03-20 20:00:00,43.9,39.4,29.98,North,0,0.0,0.0,84,0.00,,,0.23,WUHU216HW,2013-03-21 03:00:00,
2013-03-20 20:05:00,43.7,39.3,29.98,North,0,0.0,0.0,84,0.00,,,0.23,WUHU216HW,2013-03-21 03:05:00,
2013-03-20 20:10:00,43.7,39.5,29.98,ENE,68,0.9,0.9,85,0.00,,,0.23,WUHU216HW,2013-03-21 03:10:00,
2013-03-20 20:15:00,43.7,39.5,29.99,North,0,0.0,0.9,85,0.00,,,0.23,WUHU216HW,2013-03-21 03:15:00,
2013-03-20 20:20:00,43.6,39.3,29.98,East,90,0.0,0.9,85,0.00,,,0.23,WUHU216HW,2013-03-21 03:20:00,
2013-03-20 20:25:00,43.6,39.3,29.99,NE,45,0.0,0.0,85,0.00,,,0.23,WUHU216HW,2013-03-21 03:25:00,
2013-03-20 20:30:00,43.4,38.9,29.99,NE,45,0.0,1.6,84,0.00,,,0.23,WUHU216HW,2013-03-21 03:30:00,
2013-03-20 20:35:00,43.6,39.1,29.99,NE,45,0.0,1.6,84,0.00,,,0.23,WUHU216HW,2013-03-21 03:35:00,
2013-03-20 20:40:00,43.7,39.3,29.99,NE,45,0.0,0.0,84,0.00,,,0.23,WUHU216HW,2013-03-21 03:40:00,
2013-03-20 20:45:00,43.7,39.3,30.00,NE,45,0.0,0.0,84,0.00,,,0.23,WUHU216HW,2013-03-21 03:45:00,
2013-03-20 20:50:00,43.9,39.4,30.00,NE,45,0.0,0.0,84,0.00,,,0.23,WUHU216HW,2013-03-21 03:50:00,
2013-03-20 20:56:00,43.9,39.1,30.00,NE,45,0.0,0.0,83,0.00,,,0.23,WUHU216HW,2013-03-21 03:56:00,
2013-03-20 21:00:00,44.1,39.2,30.00,NE,45,0.0,0.0,83,0.00,,,0.23,WUHU216HW,2013-03-21 04:00:00,
2013-03-20 21:05:00,43.9,39.1,30.00,NE,45,0.0,0.0,83,0.00,,,0.23,WUHU216HW,2013-03-21 04:05:00,
2013-03-20 21:10:00,43.9,39.1,30.00,East,90,0.0,0.4,83,0.00,,,0.23,WUHU216HW,2013-03-21 04:10:00,
2013-03-20 21:15:00,43.9,39.1,30.01,NW,315,0.0,0.4,83,0.00,,,0.23,WUHU216HW,2013-03-21 04:15:00,
2013-03-20 21:20:00,44.1,39.6,30.01,NE,45,1.3,2.0,84,0.00,,,0.23,WUHU216HW,2013-03-21 04:20:00,
2013-03-20 21:25:00,43.9,39.4,30.02,WNW,293,0.0,2.0,84,0.00,,,0.23,WUHU216HW,2013-03-21 04:25:00,
2013-03-20 21:30:00,43.9,39.4,30.02,WNW,293,0.0,1.3,84,0.00,,,0.23,WUHU216HW,2013-03-21 04:30:00,
2013-03-20 21:35:00,43.9,39.4,30.03,NE,45,0.0,0.0,84,0.00,,,0.23,WUHU216HW,2013-03-21 04:35:00,
2013-03-20 21:40:00,43.7,39.3,30.03,North,0,0.2,0.4,84,0.00,,,0.23,WUHU216HW,2013-03-21 04:40:00,
2013-03-20 21:45:00,43.6,39.1,30.03,NE,45,0.0,1.1,84,0.00,,,0.23,WUHU216HW,2013-03-21 04:45:00,
2013-03-20 21:50:00,43.6,39.3,30.03,East,90,0.7,1.1,85,0.00,,,0.23,WUHU216HW,2013-03-21 04:50:00,
2013-03-20 21:55:00,43.6,39.3,30.03,North,0,0.0,1.1,85,0.00,,,0.23,WUHU216HW,2013-03-21 04:55:00,
2013-03-20 22:00:00,43.6,38.7,30.03,NNW,338,0.0,0.7,83,0.00,,,0.23,WUHU216HW,2013-03-21 05:00:00,
2013-03-20 22:05:00,43.6,38.4,30.04,ENE,68,0.2,0.4,82,0.00,,,0.23,WUHU216HW,2013-03-21 05:05:00,
2013-03-20 22:10:00,43.6,39.1,30.03,NNE,23,0.0,1.1,84,0.00,,,0.23,WUHU216HW,2013-03-21 05:10:00,
2013-03-20 22:15:00,43.4,38.9,30.03,NE,45,0.0,1.1,84,0.00,,,0.23,WUHU216HW,2013-03-21 05:15:00,
2013-03-20 22:20:00,43.4,38.9,30.03,NE,45,0.0,0.2,84,0.00,,,0.23,WUHU216HW,2013-03-21 05:20:00,
2013-03-20 22:25:00,43.2,38.7,30.04,NE,45,0.0,0.0,84,0.00,,,0.23,WUHU216HW,2013-03-21 05:25:00,
2013-03-20 22:30:00,43.0,38.5,30.03,NE,45,0.0,0.0,84,0.00,,,0.23,WUHU216HW,2013-03-21 05:30:00,
2013-03-20 22:35:00,42.8,38.4,30.04,NE,45,0.0,0.0,84,0.00,,,0.23,WUHU216HW,2013-03-21 05:35:00,
2013-03-20 22:40:00,42.7,38.2,30.04,NE,45,0.0,0.0,84,0.00,,,0.23,WUHU216HW,2013-03-21 05:40:00,
2013-03-20 22:45:00,42.5,38.0,30.04,NE,45,0.0,0.0,84,0.00,,,0.23,WUHU216HW,2013-03-21 05:45:00,
2013-03-20 22:50:00,42.1,37.6,30.04,East,90,0.0,0.0,84,0.00,,,0.23,WUHU216HW,2013-03-21 05:50:00,
2013-03-20 22:55:00,41.8,37.3,30.04,East,90,0.0,0.0,84,0.00,,,0.23,WUHU216HW,2013-03-21 05:55:00,
2013-03-20 23:00:00,41.4,36.9,30.05,ESE,113,0.0,0.0,84,0.00,,,0.23,WUHU216HW,2013-03-21 06:00:00,
2013-03-20 23:05:00,41.4,36.9,30.05,ESE,113,0.0,0.0,84,0.00,,,0.23,WUHU216HW,2013-03-21 06:05:00,
2013-03-20 23:10:00,41.0,36.6,30.05,ESE,113,0.0,0.2,84,0.00,,,0.23,WUHU216HW,2013-03-21 06:10:00,
2013-03-20 23:15:00,40.9,36.4,30.05,ESE,113,0.0,0.2,84,0.00,,,0.23,WUHU216HW,2013-03-21 06:15:00,
2013-03-20 23:20:00,40.9,36.4,30.05,ESE,113,0.0,0.2,84,0.00,,,0.23,WUHU216HW,2013-03-21 06:20:00,
2013-03-20 23:25:00,40.9,36.4,30.05,ESE,113,0.0,0.2,84,0.00,,,0.23,WUHU216HW,2013-03-21 06:25:00,
2013-03-20 23:30:00,40.9,36.6,30.06,ESE,113,0.0,0.2,85,0.00,,,0.23,WUHU216HW,2013-03-21 06:30:00,
2013-03-20 23:35:00,40.7,36.5,30.06,ESE,113,0.0,0.4,85,0.00,,,0.23,WUHU216HW,2013-03-21 06:35:00,
2013-03-20 23:40:00,40.7,36.5,30.06,ESE,113,0.0,0.4,85,0.00,,,0.23,WUHU216HW,2013-03-21 06:40:00,
2013-03-20 23:45:00,40.7,36.5,30.06,ESE,113,0.0,0.0,85,0.00,,,0.23,WUHU216HW,2013-03-21 06:45:00,
2013-03-20 23:50:00,40.5,36.6,30.07,ESE,113,0.0,0.0,86,0.00,,,0.23,WUHU216HW,2013-03-21 06:50:00,
2013-03-20 23:55:00,40.5,36.6,30.07,ESE,113,0.0,0.0,86,0.00,,,0.23,WUHU216HW,2013-03-21 06:55:00,